[[{"header":{"parameterUnit":"m.s-1","parameterCategory":1,"la1":30.2991,"la2":30.254,"lo1":-89.0895,"lo2":-89.0444,"dy":0.0017,"dx":0.0017,"nx":28,"ny":28,"refTime":"2025-01-03T03:00:00:Z","depth":0,"parameterNumber":2,"parameterNumberName":"U-component_of_WINDS"},"data":[0,0,0,0,0,0,0,0,0,0,0,0,0,0,0,0,0,0,0,0,0,0,0,0,0,0,0,0,0,0,0,0,0,0,0,0,0,0,0,0,0,0,0,0,0,0,0,0,0,0,0,0,0,0,0,0,0,0,-5.5916,-5.5917,0,-5.5999,-5.6,-5.6001,-5.587,-5.5865,-5.5861,-5.5857,-5.5942,-5.5948,-5.5955,0,0,0,0,0,0,0,0,0,0,0,0,0,-5.5641,-5.5647,-5.5916,-5.5917,-5.5918,-5.5999,-5.6,-5.6001,-5.5871,-5.5865,-5.586,-5.5855,-5.594,-5.5947,-5.5955,0,0,0,0,0,0,0,0,0,0,0,0,0,-5.5746,-5.5649,-5.5916,-5.5863,-5.5859,-5.5999,-5.6,-5.6002,-5.5872,-5.5865,-5.5858,-5.5852,-5.5937,-5.5947,-5.5956,-5.6152,0,0,-5.5986,-5.599,0,0,0,0,0,0,0,0,-5.574,-5.5756,-5.5869,-5.5867,-5.5862,-5.5917,-5.5934,-5.6052,-5.5874,-5.5867,-5.5856,-5.5849,-5.5939,-5.5948,-5.5979,-5.6156,-5.616,-5.5987,-5.5993,-5.5997,-5.6,0,0,0,0,0,0,0,-5.5733,-5.5752,-5.5949,-5.5871,-5.5867,-5.5834,-5.5841,-5.5956,-5.594,-5.5867,-5.5858,-5.5869,-5.5936,-5.597,-5.598,-5.6161,-5.5987,-5.5995,-5.6001,-5.6005,-5.65,-5.6507,0,0,0,0,0,0,-5.5733,-5.5747,-5.5946,-5.5951,-5.5783,-5.5844,-5.5852,-5.5907,-5.5939,-5.5937,-5.5875,-5.5863,-5.5956,-5.5969,-5.5982,-5.6212,-5.5997,-5.6006,-5.6012,-5.6493,-5.6502,-5.651,0,0,0,0,0,0,-5.5727,-5.5752,-5.5943,-5.5847,-5.5868,-5.5856,-5.5918,-5.5912,-5.5945,-5.5945,-5.5941,-5.5913,-5.5952,-5.5969,-5.611,-5.6213,-5.601,-5.6019,-5.6484,-5.6496,-5.6506,-5.6674,0,0,0,0,0,0,-5.572,-5.5751,-5.5826,-5.5849,-5.5874,-5.6071,-5.5924,-5.5918,-5.5963,-5.5948,-5.5979,-5.5978,-5.5948,-5.6096,-5.612,-5.6223,-5.6027,-5.6475,-5.6489,-5.6502,-5.6659,-5.6689,-5.6715,0,0,0,0,0,-5.5711,-5.5871,-5.583,-5.5855,-5.5968,-5.6077,-5.6091,-5.6053,-5.5972,-5.6046,-5.6045,-5.5977,-5.6198,-5.6112,-5.6137,-5.6245,-5.6468,-5.6485,-5.6501,-5.6647,-5.6683,-5.6714,0,0,0,0,0,0,-5.586,-5.5873,-5.5828,-5.6001,-5.6039,-5.6055,-5.6148,-5.6094,-5.6156,-5.6139,-5.6089,-5.6097,-5.6249,-5.6261,-5.6165,-5.6434,-5.6319,-5.6342,-5.6421,-5.6456,-5.6484,-5.6477,-5.6035,0,0,0,0,0,-5.5913,-5.6001,-5.6007,-5.6159,-5.618,-5.6161,-5.6207,-5.6175,-5.6212,-5.6227,-5.6237,-5.6275,-5.6352,-5.6405,-5.6477,-5.666,-5.6664,-5.6746,-5.6774,-5.6797,-5.6817,-5.6911,-5.6947,-5.6564,-5.6563,-5.6563,0,0,-5.6024,-5.6042,-5.61,-5.6189,-5.6215,-5.6306,-5.6176,-5.6278,-5.6345,-5.6243,-5.6376,-5.6385,-5.6424,-5.6587,-5.6659,-5.6601,-5.6923,-5.6818,-5.6836,-5.6843,-5.6932,-5.6968,-5.7001,-5.6575,-5.6573,-5.6571,0,0,-5.6272,-5.6295,-5.6422,-5.645,-5.649,-5.6476,-5.6507,-5.653,-5.6531,-5.6665,-5.6589,-5.6667,-5.6803,-5.6833,-5.6866,-5.7123,-5.7061,-5.7147,-5.7293,-5.7386,-5.7417,-5.7443,-5.7532,-5.7565,-5.7167,-5.7168,-5.7168,0,-5.6404,-5.6539,-5.6495,-5.6602,-5.6642,-5.6553,-5.6681,-5.671,-5.6771,-5.6801,-5.6735,-5.6902,-5.6922,-5.7089,-5.7151,-5.7182,-5.7214,-5.7144,-5.7416,-5.7442,-5.7466,-5.7551,-5.7585,-5.7178,-5.7176,-5.7175,-5.7174,0,-5.6699,-5.6793,-5.6891,-5.6952,-5.7003,-5.712,-5.7092,-5.715,-5.7112,-5.7104,-5.7239,-5.726,-5.7333,-5.7371,-5.7336,-5.7532,-5.7495,-5.7424,-5.7307,-5.7514,-5.7592,-5.7624,-5.7192,-5.7188,-5.7185,-5.7183,0,0,-5.7045,-5.7077,-5.7114,-5.7139,-5.7175,-5.7247,-5.7359,-5.7429,-5.7478,-5.7523,-5.7614,-5.773,-5.7663,-5.7701,-5.7668,-5.775,-5.7949,-5.7668,-5.7668,-5.7718,-5.8164,-5.8216,-5.8254,-5.7908,-5.7914,-5.7919,-5.816,0,-5.7289,-5.7483,-5.7445,-5.7633,-5.7718,-5.7634,-5.773,-5.7763,-5.7758,-5.7829,-5.7823,-5.7905,-5.7812,-5.7834,-5.7911,-5.7908,-5.8037,-5.789,-5.7991,-5.7995,-5.7983,-5.8296,-5.8352,-5.8578,-5.819,-5.8195,-5.8199,0,-5.7602,-5.7657,-5.7854,-5.7873,-5.7907,-5.7996,-5.8056,-5.8125,-5.8159,-5.8149,-5.8191,-5.8141,-5.825,-5.8133,-5.8281,-5.8182,-5.8221,-5.8225,-5.8233,-5.824,-5.8109,-5.831,-5.865,-5.8683,-5.8248,-5.8244,-5.824,0,-5.7832,-5.7955,-5.8088,-5.8112,-5.8139,-5.8203,-5.8217,-5.8244,-5.8288,-5.834,-5.8368,-5.8433,-5.8468,-5.8519,-5.8488,-5.8405,-5.8641,-5.8521,-5.8635,-5.8636,-5.8688,-5.8685,-5.9038,-5.8716,-5.8715,-5.8715,-5.8714,0,-5.8108,-5.8232,-5.8191,-5.8273,-5.8407,-5.8362,-5.8496,-5.85,-5.8524,-5.8604,-5.8535,-5.8611,-5.8566,-5.8638,-5.8614,-5.874,-5.8757,-5.8751,-5.8743,-5.8756,-5.8757,-5.878,-5.8763,-5.8724,-5.8722,-5.872,-5.8718,0,-5.8388,-5.8366,-5.8505,-5.8518,-5.8524,-5.8623,-5.8634,-5.8709,-5.8698,-5.88,-5.8821,-5.8804,-5.8885,-5.8859,-5.8947,-5.893,-5.9089,-5.9061,-5.9078,-5.907,-5.9184,-5.9173,-5.9564,-5.9611,-5.926,-5.9264,-5.9267,0,-5.8566,-5.8658,-5.8681,-5.8729,-5.8748,-5.8827,-5.8871,-5.8829,-5.8878,-5.8921,-5.8991,-5.9066,-5.9123,-5.9256,-5.9251,-5.9317,-5.929,-5.9422,-5.9299,-5.9309,-5.9289,-5.9283,-5.9291,-5.9446,-5.945,-5.9454,-5.9456,0,-5.8882,-5.8866,-5.8932,-5.8995,-5.9049,-5.9096,-5.9137,-5.918,-5.914,-5.9198,-5.928,-5.9324,-5.9412,-5.9487,-5.9546,-5.9559,-5.9501,-5.9495,-5.9524,-5.9538,-5.9543,-5.954,-5.9143,-5.9486,-5.9483,-5.9481,-5.9479,-5.9478,-5.9115,-5.9192,-5.9219,-5.9294,-5.932,-5.9359,-5.943,-5.9427,-5.9494,-5.9563,-5.9534,-5.9627,-5.9655,-5.9728,-5.975,-5.9821,-5.977,-5.9813,-5.9824,-5.9835,-5.9848,-5.9533,-5.9832,-5.9831,-5.983,-5.9829,-5.9829,0,-5.9426,-5.9439,-5.9508,-5.9566,-5.9625,-5.9565,-5.9606,-5.9659,-5.9742,-5.9774,-5.9831,-5.9924,-5.9995,-5.9995,-6.006,-6.0118,-6.0092,-6.0136,-6.0131,-6.0134,-5.9891,-5.9858,-6.0155,-6.0155,-6.0155,-6.0155,-6.0155,-6.0155,-5.9595,-5.9721,-5.9708,-5.9845,-5.9856,-5.9947,-5.9976,-6.0011,-6.0035,-6.0141,-6.02,-6.0199,-6.0217,-6.0283,-6.0345,-6.0343,-6.0369,-6.0423,-6.0411,-6.0184,-6.0152,-6.0121,-6.0089,-6.043,-6.043,-6.0647,-6.0649,-6.0651]},{"header":{"parameterUnit":"m.s-1","parameterCategory":1,"la1":30.2991,"la2":30.254,"lo1":-89.0895,"lo2":-89.0444,"dy":0.0017,"dx":0.0017,"nx":28,"ny":28,"refTime":"2025-01-03T03:00:00:Z","depth":0,"parameterNumber":3,"parameterNumberName":"V-component_of_WINDS"},"data":[0,0,0,0,0,0,0,0,0,0,0,0,0,0,0,0,0,0,0,0,0,0,0,0,0,0,0,0,0,0,0,0,0,0,0,0,0,0,0,0,0,0,0,0,0,0,0,0,0,0,0,0,0,0,0,0,0,0,-2.1534,-2.1535,0,-2.1592,-2.1593,-2.1593,-2.1576,-2.1574,-2.1573,-2.1572,-2.1634,-2.1636,-2.1639,0,0,0,0,0,0,0,0,0,0,0,0,0,-2.141,-2.1412,-2.1534,-2.1535,-2.1536,-2.1592,-2.1593,-2.1594,-2.1576,-2.1574,-2.1573,-2.1571,-2.1633,-2.1636,-2.1639,0,0,0,0,0,0,0,0,0,0,0,0,0,-2.1465,-2.1413,-2.1534,-2.1534,-2.1534,-2.1592,-2.1593,-2.1594,-2.1576,-2.1574,-2.1572,-2.1571,-2.1632,-2.1636,-2.164,-2.1702,0,0,-2.1653,-2.1654,0,0,0,0,0,0,0,0,-2.1462,-2.147,-2.1533,-2.1534,-2.1534,-2.1575,-2.1571,-2.163,-2.1577,-2.156,-2.1572,-2.157,-2.1616,-2.1621,-2.1636,-2.1705,-2.1708,-2.1653,-2.1656,-2.1657,-2.1659,0,0,0,0,0,0,0,-2.1458,-2.1467,-2.1557,-2.1534,-2.1535,-2.1531,-2.1537,-2.1583,-2.1598,-2.1561,-2.156,-2.1567,-2.1616,-2.1632,-2.1637,-2.1709,-2.1653,-2.1657,-2.1659,-2.1661,-2.1831,-2.1833,0,0,0,0,0,0,-2.1454,-2.1464,-2.1555,-2.1559,-2.1493,-2.1534,-2.1541,-2.1564,-2.1597,-2.16,-2.1569,-2.1566,-2.1626,-2.1632,-2.1639,-2.1714,-2.1657,-2.1661,-2.1664,-2.1829,-2.1831,-2.1833,0,0,0,0,0,0,-2.1451,-2.1462,-2.1553,-2.1511,-2.1523,-2.1539,-2.1564,-2.1566,-2.1582,-2.1603,-2.1605,-2.1583,-2.1625,-2.1634,-2.1686,-2.1716,-2.1663,-2.1667,-2.1826,-2.1829,-2.1832,-2.1864,0,0,0,0,0,0,-2.1448,-2.1461,-2.1485,-2.1512,-2.1525,-2.1599,-2.1566,-2.1568,-2.1589,-2.1586,-2.1616,-2.1619,-2.1624,-2.168,-2.169,-2.1721,-2.167,-2.1824,-2.1828,-2.1831,-2.186,-2.1867,-2.1874,0,0,0,0,0,-2.1443,-2.1493,-2.1486,-2.1498,-2.1555,-2.1601,-2.1608,-2.1611,-2.1591,-2.1615,-2.1628,-2.1619,-2.1711,-2.1686,-2.1697,-2.1729,-2.1822,-2.1827,-2.1831,-2.1857,-2.1866,-2.1874,0,0,0,0,0,0,-2.147,-2.1496,-2.149,-2.1549,-2.1573,-2.1597,-2.1628,-2.1621,-2.1651,-2.1648,-2.1651,-2.1658,-2.1712,-2.1726,-2.1697,-2.179,-2.1763,-2.1771,-2.1779,-2.1788,-2.1795,-2.179,-2.1674,0,0,0,0,0,-2.1483,-2.1517,-2.1538,-2.1589,-2.1601,-2.1612,-2.1632,-2.1633,-2.1658,-2.1668,-2.1685,-2.171,-2.1744,-2.1767,-2.18,-2.1862,-2.1868,-2.1889,-2.1896,-2.1901,-2.1908,-2.194,-2.195,-2.1848,-2.1848,-2.1848,0,0,-2.151,-2.1528,-2.155,-2.1595,-2.1613,-2.1648,-2.1621,-2.166,-2.1687,-2.1674,-2.1724,-2.1737,-2.1766,-2.1823,-2.1849,-2.1836,-2.1937,-2.1907,-2.1911,-2.1915,-2.1946,-2.1955,-2.1964,-2.1851,-2.1851,-2.185,0,0,-2.1577,-2.1595,-2.1638,-2.1656,-2.1683,-2.1691,-2.1701,-2.1726,-2.1734,-2.1784,-2.1775,-2.1807,-2.1866,-2.1886,-2.1904,-2.1977,-2.1968,-2.1987,-2.2023,-2.2055,-2.2063,-2.207,-2.2095,-2.2104,-2.1993,-2.1993,-2.1994,0,-2.1608,-2.166,-2.1661,-2.1701,-2.172,-2.1709,-2.1752,-2.177,-2.1807,-2.1821,-2.1806,-2.1879,-2.1897,-2.1958,-2.1976,-2.1991,-2.2003,-2.1984,-2.2061,-2.2068,-2.2075,-2.2099,-2.2108,-2.1996,-2.1995,-2.1995,-2.1995,0,-2.1696,-2.1732,-2.1764,-2.1798,-2.1821,-2.1863,-2.187,-2.1893,-2.1891,-2.19,-2.195,-2.1971,-2.2008,-2.2022,-2.2021,-2.2083,-2.2074,-2.206,-2.2033,-2.2087,-2.2109,-2.2118,-2.1998,-2.1998,-2.1997,-2.1997,0,0,-2.1783,-2.1816,-2.1827,-2.1842,-2.187,-2.1899,-2.1939,-2.1973,-2.1993,-2.2019,-2.2052,-2.2102,-2.2088,-2.2109,-2.211,-2.2138,-2.2192,-2.212,-2.2121,-2.2132,-2.226,-2.227,-2.2281,-2.2187,-2.2189,-2.219,-2.2258,0,-2.1852,-2.1922,-2.1923,-2.1988,-2.2021,-2.2009,-2.2044,-2.2066,-2.2074,-2.2104,-2.2114,-2.2149,-2.2129,-2.2141,-2.2168,-2.218,-2.2218,-2.2175,-2.2218,-2.222,-2.2211,-2.2293,-2.2304,-2.2367,-2.2267,-2.2268,-2.2269,0,-2.1942,-2.1968,-2.2036,-2.2058,-2.2072,-2.2103,-2.2134,-2.2162,-2.2186,-2.219,-2.2212,-2.2208,-2.2249,-2.222,-2.2277,-2.2247,-2.2265,-2.2273,-2.2276,-2.228,-2.2248,-2.2299,-2.2388,-2.2397,-2.2283,-2.2282,-2.2281,0,-2.1998,-2.205,-2.2097,-2.211,-2.2137,-2.2159,-2.2172,-2.2193,-2.2213,-2.224,-2.2253,-2.2285,-2.2302,-2.2327,-2.2332,-2.2311,-2.2388,-2.236,-2.2393,-2.2393,-2.241,-2.2409,-2.2502,-2.2422,-2.2422,-2.2421,-2.2421,0,-2.2074,-2.2116,-2.2122,-2.2151,-2.2197,-2.2197,-2.2243,-2.2254,-2.2273,-2.2303,-2.2296,-2.2325,-2.2329,-2.236,-2.2364,-2.2409,-2.2418,-2.2422,-2.2423,-2.2423,-2.2422,-2.2434,-2.243,-2.2424,-2.2423,-2.2423,-2.2422,0,-2.2144,-2.215,-2.22,-2.2221,-2.2227,-2.226,-2.2278,-2.2305,-2.2312,-2.2351,-2.236,-2.2372,-2.2407,-2.2414,-2.2456,-2.2458,-2.2512,-2.2509,-2.2504,-2.2503,-2.2535,-2.2532,-2.264,-2.2654,-2.2565,-2.2566,-2.2566,0,-2.2193,-2.2224,-2.2247,-2.2267,-2.228,-2.2311,-2.2331,-2.2333,-2.2354,-2.2382,-2.2406,-2.2439,-2.2466,-2.2522,-2.2535,-2.2567,-2.2564,-2.2599,-2.2568,-2.2567,-2.2563,-2.2561,-2.2564,-2.2605,-2.2606,-2.2607,-2.2607,0,-2.2278,-2.2279,-2.2307,-2.2336,-2.2359,-2.2382,-2.2404,-2.2421,-2.2425,-2.2449,-2.2484,-2.2505,-2.2546,-2.2579,-2.2611,-2.2624,-2.2617,-2.2617,-2.2626,-2.2626,-2.2622,-2.2624,-2.2519,-2.2615,-2.2614,-2.2613,-2.2613,-2.2613,-2.2338,-2.2365,-2.2385,-2.2416,-2.2432,-2.2453,-2.2479,-2.2488,-2.2517,-2.255,-2.2549,-2.2587,-2.2609,-2.265,-2.2665,-2.2694,-2.2683,-2.2697,-2.27,-2.2703,-2.2706,-2.2617,-2.27,-2.27,-2.27,-2.27,-2.27,0,-2.2422,-2.2434,-2.2462,-2.2492,-2.2517,-2.2506,-2.253,-2.2551,-2.2584,-2.2604,-2.263,-2.267,-2.2702,-2.2716,-2.2747,-2.2768,-2.2766,-2.2777,-2.2775,-2.2778,-2.2714,-2.2703,-2.2778,-2.2778,-2.2778,-2.2778,-2.2778,-2.2778,-2.2468,-2.2513,-2.2516,-2.2567,-2.2579,-2.2615,-2.2629,-2.2648,-2.2663,-2.2707,-2.2733,-2.2742,-2.276,-2.2792,-2.2821,-2.2824,-2.2836,-2.2848,-2.285,-2.2791,-2.2783,-2.2775,-2.2764,-2.2851,-2.2851,-2.2911,-2.2912,-2.2912]}]]